Time,TemperatureF,DewpointF,PressureIn,WindDirection,WindDirectionDegrees,WindSpeedMPH,WindSpeedGustMPH,Humidity,HourlyPrecipIn,Conditions,Clouds,dailyrainin,SoftwareType,DateUTC
2013-08-29 00:00:00,77.1,70.8,29.97,SE,145,4.0,4.0,81,0.00,,,0.00,Wunderground v.1.15,2013-08-29 05:00:00,
2013-08-29 00:05:00,77.0,70.7,29.97,SE,143,5.0,6.0,81,0.00,,,0.00,Wunderground v.1.15,2013-08-29 05:05:00,
2013-08-29 00:10:00,77.0,70.7,29.97,SE,144,5.0,6.0,81,0.00,,,0.00,Wunderground v.1.15,2013-08-29 05:10:00,
2013-08-29 00:15:00,76.8,70.9,29.97,SSE,150,5.0,6.0,82,0.00,,,0.00,Wunderground v.1.15,2013-08-29 05:15:00,
2013-08-29 00:20:00,76.8,70.9,29.97,SSE,158,5.0,5.0,82,0.00,,,0.00,Wunderground v.1.15,2013-08-29 05:20:00,
2013-08-29 00:25:00,77.1,70.8,29.97,SSE,166,5.0,6.0,81,0.00,,,0.00,Wunderground v.1.15,2013-08-29 05:25:00,
2013-08-29 00:31:00,77.3,71.0,29.97,SSE,157,5.0,7.0,81,0.00,,,0.00,Wunderground v.1.15,2013-08-29 05:31:00,
2013-08-29 00:36:00,77.1,70.8,29.97,SSE,156,5.0,7.0,81,0.00,,,0.00,Wunderground v.1.15,2013-08-29 05:36:00,
2013-08-29 00:42:00,77.0,70.7,29.97,SSE,159,5.0,7.0,81,0.00,,,0.00,Wunderground v.1.15,2013-08-29 05:42:00,
2013-08-29 00:48:00,77.0,70.7,29.97,SSE,159,5.0,7.0,81,0.00,,,0.00,Wunderground v.1.15,2013-08-29 05:48:00,
2013-08-29 00:54:00,76.9,70.6,29.97,SSE,156,5.0,6.0,81,0.00,,,0.00,Wunderground v.1.15,2013-08-29 05:54:00,
2013-08-29 01:00:00,76.9,70.6,29.96,SSE,161,5.0,7.0,81,0.00,,,0.00,Wunderground v.1.15,2013-08-29 06:00:00,
2013-08-29 01:05:00,76.8,70.5,29.96,SSE,166,6.0,8.0,81,0.00,,,0.00,Wunderground v.1.15,2013-08-29 06:05:00,
2013-08-29 01:10:00,76.7,70.8,29.96,SSE,165,6.0,8.0,82,0.00,,,0.00,Wunderground v.1.15,2013-08-29 06:10:00,
2013-08-29 01:15:00,76.6,70.7,29.96,SSE,164,6.0,9.0,82,0.00,,,0.00,Wunderground v.1.15,2013-08-29 06:15:00,
2013-08-29 01:20:00,76.6,70.7,29.96,SSE,165,7.0,8.0,82,0.00,,,0.00,Wunderground v.1.15,2013-08-29 06:20:00,
2013-08-29 01:26:00,76.6,70.7,29.96,SSE,167,6.0,8.0,82,0.00,,,0.00,Wunderground v.1.15,2013-08-29 06:26:00,
2013-08-29 01:32:00,76.7,70.4,29.96,SSE,161,6.0,8.0,81,0.00,,,0.00,Wunderground v.1.15,2013-08-29 06:32:00,
2013-08-29 01:38:00,76.7,70.4,29.96,South,170,7.0,9.0,81,0.00,,,0.00,Wunderground v.1.15,2013-08-29 06:38:00,
2013-08-29 01:44:00,76.7,70.4,29.96,South,178,6.0,7.0,81,0.00,,,0.00,Wunderground v.1.15,2013-08-29 06:44:00,
2013-08-29 01:50:00,76.8,70.5,29.96,SSE,163,6.0,8.0,81,0.00,,,0.00,Wunderground v.1.15,2013-08-29 06:50:00,
2013-08-29 01:56:00,76.7,70.1,29.96,SSE,167,7.0,10.0,80,0.00,,,0.00,Wunderground v.1.15,2013-08-29 06:56:00,
2013-08-29 02:02:00,76.8,70.2,29.96,SSE,163,7.0,9.0,80,0.00,,,0.00,Wunderground v.1.15,2013-08-29 07:02:00,
2013-08-29 02:08:00,76.8,70.2,29.96,South,178,7.0,9.0,80,0.00,,,0.00,Wunderground v.1.15,2013-08-29 07:08:00,
2013-08-29 02:13:00,76.8,70.2,29.96,South,170,6.0,12.0,80,0.00,,,0.00,Wunderground v.1.15,2013-08-29 07:13:00,
2013-08-29 02:19:00,76.8,70.2,29.96,South,171,6.0,12.0,80,0.00,,,0.00,Wunderground v.1.15,2013-08-29 07:19:00,
2013-08-29 02:24:00,76.9,70.3,29.96,South,178,7.0,11.0,80,0.00,,,0.00,Wunderground v.1.15,2013-08-29 07:24:00,
2013-08-29 02:29:00,76.9,70.3,29.96,South,177,7.0,11.0,80,0.00,,,0.00,Wunderground v.1.15,2013-08-29 07:29:00,
2013-08-29 02:34:00,76.9,70.3,29.96,South,178,7.0,10.0,80,0.00,,,0.00,Wunderground v.1.15,2013-08-29 07:34:00,
2013-08-29 02:39:00,76.7,70.1,29.96,South,175,7.0,10.0,80,0.00,,,0.00,Wunderground v.1.15,2013-08-29 07:39:00,
2013-08-29 02:44:00,76.7,70.1,29.96,South,180,7.0,10.0,80,0.00,,,0.00,Wunderground v.1.15,2013-08-29 07:44:00,
2013-08-29 02:50:00,76.6,70.0,29.96,South,177,7.0,9.0,80,0.00,,,0.00,Wunderground v.1.15,2013-08-29 07:50:00,
2013-08-29 02:56:00,76.5,70.2,29.96,South,178,7.0,10.0,81,0.00,,,0.00,Wunderground v.1.15,2013-08-29 07:56:00,
2013-08-29 03:01:00,76.4,70.1,29.96,South,175,7.0,8.0,81,0.00,,,0.00,Wunderground v.1.15,2013-08-29 08:01:00,
2013-08-29 03:07:00,76.2,69.9,29.96,South,184,7.0,10.0,81,0.00,,,0.00,Wunderground v.1.15,2013-08-29 08:07:00,
2013-08-29 03:13:00,76.0,69.7,29.96,South,182,7.0,9.0,81,0.00,,,0.00,Wunderground v.1.15,2013-08-29 08:13:00,
2013-08-29 03:18:00,75.8,69.9,29.96,South,186,7.0,10.0,82,0.00,,,0.00,Wunderground v.1.15,2013-08-29 08:18:00,
2013-08-29 03:23:00,75.8,69.9,29.96,South,187,7.0,9.0,82,0.00,,,0.00,Wunderground v.1.15,2013-08-29 08:23:00,
2013-08-29 03:29:00,75.4,69.9,29.96,South,182,7.0,10.0,83,0.00,,,0.00,Wunderground v.1.15,2013-08-29 08:29:00,
2013-08-29 03:34:00,75.3,69.8,29.96,SSE,168,7.0,10.0,83,0.00,,,0.00,Wunderground v.1.15,2013-08-29 08:34:00,
2013-08-29 03:39:00,75.2,69.7,29.96,SSE,163,7.0,10.0,83,0.00,,,0.00,Wunderground v.1.15,2013-08-29 08:39:00,
2013-08-29 03:44:00,75.2,69.7,29.96,South,177,7.0,10.0,83,0.00,,,0.00,Wunderground v.1.15,2013-08-29 08:44:00,
2013-08-29 03:49:00,75.4,69.9,29.96,South,182,8.0,11.0,83,0.00,,,0.00,Wunderground v.1.15,2013-08-29 08:49:00,
2013-08-29 03:55:00,75.6,69.7,29.96,South,178,8.0,11.0,82,0.00,,,0.00,Wunderground v.1.15,2013-08-29 08:55:00,
2013-08-29 04:00:00,75.7,69.8,29.96,SSW,196,7.0,7.0,82,0.00,,,0.00,Wunderground v.1.15,2013-08-29 09:00:00,
2013-08-29 04:05:00,75.7,69.8,29.96,SSW,192,7.0,10.0,82,0.00,,,0.00,Wunderground v.1.15,2013-08-29 09:05:00,
2013-08-29 04:11:00,75.8,69.9,29.96,SSW,200,6.0,7.0,82,0.00,,,0.00,Wunderground v.1.15,2013-08-29 09:11:00,
2013-08-29 04:16:00,75.8,69.6,29.96,South,183,6.0,10.0,81,0.00,,,0.00,Wunderground v.1.15,2013-08-29 09:16:00,
2013-08-29 04:21:00,75.7,69.8,29.95,South,177,7.0,10.0,82,0.00,,,0.00,Wunderground v.1.15,2013-08-29 09:21:00,
2013-08-29 04:27:00,75.7,69.8,29.95,South,184,7.0,10.0,82,0.00,,,0.00,Wunderground v.1.15,2013-08-29 09:27:00,
2013-08-29 04:33:00,75.5,69.6,29.95,South,179,7.0,9.0,82,0.00,,,0.00,Wunderground v.1.15,2013-08-29 09:33:00,
2013-08-29 04:39:00,75.1,69.2,29.95,South,178,7.0,9.0,82,0.00,,,0.00,Wunderground v.1.15,2013-08-29 09:39:00,
2013-08-29 04:45:00,74.9,69.4,29.95,South,186,7.0,10.0,83,0.00,,,0.00,Wunderground v.1.15,2013-08-29 09:45:00,
2013-08-29 04:51:00,75.1,69.2,29.95,South,182,7.0,10.0,82,0.00,,,0.00,Wunderground v.1.15,2013-08-29 09:51:00,
2013-08-29 04:57:00,75.0,69.1,29.95,South,189,7.0,10.0,82,0.00,,,0.00,Wunderground v.1.15,2013-08-29 09:57:00,
2013-08-29 05:03:00,74.8,69.3,29.95,South,173,7.0,10.0,83,0.00,,,0.00,Wunderground v.1.15,2013-08-29 10:03:00,
2013-08-29 05:09:00,74.9,69.0,29.96,South,189,7.0,11.0,82,0.00,,,0.00,Wunderground v.1.15,2013-08-29 10:09:00,
2013-08-29 05:15:00,75.0,69.1,29.96,South,189,7.0,12.0,82,0.00,,,0.00,Wunderground v.1.15,2013-08-29 10:15:00,
2013-08-29 05:20:00,74.9,69.0,29.96,South,191,7.0,7.0,82,0.00,,,0.00,Wunderground v.1.15,2013-08-29 10:20:00,
2013-08-29 05:25:00,74.7,69.2,29.96,South,188,6.0,9.0,83,0.00,,,0.00,Wunderground v.1.15,2013-08-29 10:25:00,
2013-08-29 05:31:00,74.6,69.1,29.96,SSW,195,6.0,8.0,83,0.00,,,0.00,Wunderground v.1.15,2013-08-29 10:31:00,
2013-08-29 05:36:00,74.5,69.0,29.96,SSW,192,5.0,8.0,83,0.00,,,0.00,Wunderground v.1.15,2013-08-29 10:36:00,
2013-08-29 05:42:00,74.3,68.8,29.96,South,178,6.0,8.0,83,0.00,,,0.00,Wunderground v.1.15,2013-08-29 10:42:00,
2013-08-29 05:48:00,73.9,68.8,29.96,South,173,6.0,8.0,84,0.00,,,0.00,Wunderground v.1.15,2013-08-29 10:48:00,
2013-08-29 05:54:00,73.7,68.6,29.96,South,179,5.0,8.0,84,0.00,,,0.00,Wunderground v.1.15,2013-08-29 10:54:00,
2013-08-29 05:59:00,73.5,68.4,29.96,South,175,5.0,8.0,84,0.00,,,0.00,Wunderground v.1.15,2013-08-29 10:59:00,
2013-08-29 06:05:00,73.3,68.5,29.96,South,174,5.0,7.0,85,0.00,,,0.00,Wunderground v.1.15,2013-08-29 11:05:00,
2013-08-29 06:10:00,73.0,68.2,29.96,South,188,5.0,7.0,85,0.00,,,0.00,Wunderground v.1.15,2013-08-29 11:10:00,
2013-08-29 06:15:00,72.9,68.5,29.96,South,171,6.0,8.0,86,0.00,,,0.00,Wunderground v.1.15,2013-08-29 11:15:00,
2013-08-29 06:20:00,72.9,68.5,29.96,South,179,6.0,8.0,86,0.00,,,0.00,Wunderground v.1.15,2013-08-29 11:20:00,
2013-08-29 06:26:00,72.9,68.5,29.96,South,183,6.0,10.0,86,0.00,,,0.00,Wunderground v.1.15,2013-08-29 11:26:00,
2013-08-29 06:31:00,73.0,68.2,29.96,SSW,196,6.0,8.0,85,0.00,,,0.00,Wunderground v.1.15,2013-08-29 11:31:00,
2013-08-29 06:37:00,73.0,68.2,29.96,South,184,6.0,8.0,85,0.00,,,0.00,Wunderground v.1.15,2013-08-29 11:37:00,
2013-08-29 06:43:00,72.9,68.1,29.96,South,172,5.0,7.0,85,0.00,,,0.00,Wunderground v.1.15,2013-08-29 11:43:00,
2013-08-29 06:49:00,72.7,68.3,29.97,South,169,5.0,7.0,86,0.00,,,0.00,Wunderground v.1.15,2013-08-29 11:49:00,
2013-08-29 06:55:00,72.5,68.1,29.97,SSE,152,5.0,7.0,86,0.00,,,0.00,Wunderground v.1.15,2013-08-29 11:55:00,
2013-08-29 07:00:00,72.2,67.8,29.97,SSE,166,5.0,6.0,86,0.00,,,0.00,Wunderground v.1.15,2013-08-29 12:00:00,
2013-08-29 07:06:00,72.0,67.9,29.97,SSE,161,5.0,7.0,87,0.00,,,0.00,Wunderground v.1.15,2013-08-29 12:06:00,
2013-08-29 07:11:00,71.9,68.2,29.97,South,172,5.0,6.0,88,0.00,,,0.00,Wunderground v.1.15,2013-08-29 12:11:00,
2013-08-29 07:17:00,71.9,68.2,29.97,South,170,5.0,7.0,88,0.00,,,0.00,Wunderground v.1.15,2013-08-29 12:17:00,
2013-08-29 07:22:00,72.0,68.2,29.97,SSE,168,5.0,6.0,88,0.00,,,0.00,Wunderground v.1.15,2013-08-29 12:22:00,
2013-08-29 07:27:00,71.9,68.2,29.97,SSE,166,5.0,7.0,88,0.00,,,0.00,Wunderground v.1.15,2013-08-29 12:27:00,
2013-08-29 07:33:00,72.0,68.2,29.98,SSE,168,5.0,6.0,88,0.00,,,0.00,Wunderground v.1.15,2013-08-29 12:33:00,
2013-08-29 07:39:00,71.9,68.2,29.98,SSE,168,5.0,6.0,88,0.00,,,0.00,Wunderground v.1.15,2013-08-29 12:39:00,
2013-08-29 07:44:00,72.0,68.2,29.98,SSE,167,4.0,5.0,88,0.00,,,0.00,Wunderground v.1.15,2013-08-29 12:44:00,
2013-08-29 07:50:00,72.2,68.4,29.98,SSE,164,5.0,6.0,88,0.00,,,0.00,Wunderground v.1.15,2013-08-29 12:50:00,
2013-08-29 07:56:00,72.6,68.5,29.98,SSE,167,5.0,7.0,87,0.00,,,0.00,Wunderground v.1.15,2013-08-29 12:56:00,
2013-08-29 08:01:00,72.8,68.4,29.98,South,169,5.0,6.0,86,0.00,,,0.00,Wunderground v.1.15,2013-08-29 13:01:00,
2013-08-29 08:07:00,72.9,68.5,29.98,SSE,161,5.0,7.0,86,0.00,,,0.00,Wunderground v.1.15,2013-08-29 13:07:00,
2013-08-29 08:12:00,73.0,68.6,29.98,SSE,165,5.0,5.0,86,0.00,,,0.00,Wunderground v.1.15,2013-08-29 13:12:00,
2013-08-29 08:17:00,73.1,68.7,29.98,SSE,153,5.0,8.0,86,0.00,,,0.00,Wunderground v.1.15,2013-08-29 13:17:00,
2013-08-29 08:23:00,73.3,68.5,29.98,South,178,6.0,8.0,85,0.00,,,0.00,Wunderground v.1.15,2013-08-29 13:23:00,
2013-08-29 08:28:00,73.6,68.8,29.98,South,173,6.0,8.0,85,0.00,,,0.00,Wunderground v.1.15,2013-08-29 13:28:00,
2013-08-29 08:34:00,74.2,69.1,29.98,South,178,6.0,8.0,84,0.00,,,0.00,Wunderground v.1.15,2013-08-29 13:34:00,
2013-08-29 08:39:00,74.8,69.3,29.98,South,171,6.0,10.0,83,0.00,,,0.00,Wunderground v.1.15,2013-08-29 13:39:00,
2013-08-29 08:45:00,75.3,68.7,29.98,South,174,8.0,11.0,80,0.00,,,0.00,Wunderground v.1.15,2013-08-29 13:45:00,
2013-08-29 08:50:00,75.7,69.1,29.98,South,185,8.0,10.0,80,0.00,,,0.00,Wunderground v.1.15,2013-08-29 13:50:00,
2013-08-29 08:55:00,75.9,68.9,29.98,South,182,8.0,11.0,79,0.00,,,0.00,Wunderground v.1.15,2013-08-29 13:55:00,
2013-08-29 09:01:00,76.5,69.1,29.98,South,186,8.0,9.0,78,0.00,,,0.00,Wunderground v.1.15,2013-08-29 14:01:00,
2013-08-29 09:07:00,77.0,68.9,29.98,South,179,7.0,11.0,76,0.00,,,0.00,Wunderground v.1.15,2013-08-29 14:07:00,
2013-08-29 09:12:00,77.6,69.0,29.98,South,180,7.0,10.0,75,0.00,,,0.00,Wunderground v.1.15,2013-08-29 14:12:00,
2013-08-29 09:18:00,78.2,69.2,29.98,SSW,196,7.0,10.0,74,0.00,,,0.00,Wunderground v.1.15,2013-08-29 14:18:00,
2013-08-29 09:24:00,78.9,69.5,29.98,South,187,7.0,10.0,73,0.00,,,0.00,Wunderground v.1.15,2013-08-29 14:24:00,
2013-08-29 09:30:00,79.6,69.4,29.98,SSW,194,7.0,11.0,71,0.00,,,0.00,Wunderground v.1.15,2013-08-29 14:30:00,
2013-08-29 09:35:00,80.3,69.2,29.98,SSW,203,7.0,12.0,69,0.00,,,0.00,Wunderground v.1.15,2013-08-29 14:35:00,
2013-08-29 09:41:00,81.0,69.0,29.99,South,170,7.0,9.0,67,0.00,,,0.00,Wunderground v.1.15,2013-08-29 14:41:00,
2013-08-29 09:46:00,81.4,68.9,29.98,SSW,195,8.0,13.0,66,0.00,,,0.00,Wunderground v.1.15,2013-08-29 14:46:00,
2013-08-29 09:51:00,82.0,68.2,29.98,SW,221,9.0,14.0,63,0.00,,,0.00,Wunderground v.1.15,2013-08-29 14:51:00,
2013-08-29 09:57:00,82.9,69.5,29.98,South,182,8.0,14.0,64,0.00,,,0.00,Wunderground v.1.15,2013-08-29 14:57:00,
2013-08-29 10:02:00,83.3,68.9,29.98,South,173,7.0,10.0,62,0.00,,,0.00,Wunderground v.1.15,2013-08-29 15:02:00,
2013-08-29 10:08:00,83.4,68.5,29.98,SSW,203,8.0,12.0,61,0.00,,,0.00,Wunderground v.1.15,2013-08-29 15:08:00,
2013-08-29 10:14:00,83.6,68.7,29.99,SSW,202,8.0,11.0,61,0.00,,,0.00,Wunderground v.1.15,2013-08-29 15:14:00,
2013-08-29 10:19:00,83.9,69.0,29.99,SSW,202,7.0,11.0,61,0.00,,,0.00,Wunderground v.1.15,2013-08-29 15:19:00,
2013-08-29 10:25:00,84.6,68.7,29.99,SSW,193,7.0,11.0,59,0.00,,,0.00,Wunderground v.1.15,2013-08-29 15:25:00,
2013-08-29 10:30:00,84.7,68.8,29.99,South,188,7.0,7.0,59,0.00,,,0.00,Wunderground v.1.15,2013-08-29 15:30:00,
2013-08-29 10:35:00,85.3,68.3,29.99,South,176,7.0,8.0,57,0.00,,,0.00,Wunderground v.1.15,2013-08-29 15:35:00,
2013-08-29 10:40:00,85.6,69.1,29.99,SSW,202,7.0,7.0,58,0.00,,,0.00,Wunderground v.1.15,2013-08-29 15:40:00,
2013-08-29 10:45:00,86.1,68.6,29.99,SSW,202,7.0,12.0,56,0.00,,,0.00,Wunderground v.1.15,2013-08-29 15:45:00,
2013-08-29 10:51:00,86.3,69.3,29.99,South,188,7.0,8.0,57,0.00,,,0.00,Wunderground v.1.15,2013-08-29 15:51:00,
2013-08-29 10:57:00,86.9,68.8,29.98,SSW,201,6.0,9.0,55,0.00,,,0.00,Wunderground v.1.15,2013-08-29 15:57:00,
2013-08-29 11:02:00,87.3,68.6,29.98,SW,225,7.0,11.0,54,0.00,,,0.00,Wunderground v.1.15,2013-08-29 16:02:00,
2013-08-29 11:08:00,87.7,69.0,29.98,SW,215,7.0,13.0,54,0.00,,,0.00,Wunderground v.1.15,2013-08-29 16:08:00,
2013-08-29 11:13:00,87.9,68.6,29.98,South,191,7.0,13.0,53,0.00,,,0.00,Wunderground v.1.15,2013-08-29 16:13:00,
2013-08-29 11:19:00,88.4,69.1,29.98,SSW,207,7.0,13.0,53,0.00,,,0.00,Wunderground v.1.15,2013-08-29 16:19:00,
2013-08-29 11:24:00,88.6,67.6,29.98,SSW,200,7.0,12.0,50,0.00,,,0.00,Wunderground v.1.15,2013-08-29 16:24:00,
2013-08-29 11:30:00,88.9,68.4,29.98,South,190,7.0,12.0,51,0.00,,,0.00,Wunderground v.1.15,2013-08-29 16:30:00,
2013-08-29 11:36:00,89.1,68.0,29.98,SSW,198,8.0,13.0,50,0.00,,,0.00,Wunderground v.1.15,2013-08-29 16:36:00,
2013-08-29 11:41:00,89.3,67.6,29.98,SSW,203,8.0,10.0,49,0.00,,,0.00,Wunderground v.1.15,2013-08-29 16:41:00,
2013-08-29 11:47:00,89.6,67.3,29.98,SSW,201,8.0,12.0,48,0.00,,,0.00,Wunderground v.1.15,2013-08-29 16:47:00,
2013-08-29 11:53:00,90.0,67.7,29.98,SW,222,8.0,10.0,48,0.00,,,0.00,Wunderground v.1.15,2013-08-29 16:53:00,
2013-08-29 11:58:00,90.4,68.0,29.98,South,175,6.0,11.0,48,0.00,,,0.00,Wunderground v.1.15,2013-08-29 16:58:00,
2013-08-29 12:04:00,90.7,68.3,29.98,SSW,207,7.0,11.0,48,0.00,,,0.00,Wunderground v.1.15,2013-08-29 17:04:00,
2013-08-29 12:09:00,91.2,67.5,29.98,SW,220,8.0,12.0,46,0.00,,,0.00,Wunderground v.1.15,2013-08-29 17:09:00,
2013-08-29 12:15:00,92.0,68.3,29.97,South,187,7.0,13.0,46,0.00,,,0.00,Wunderground v.1.15,2013-08-29 17:15:00,
2013-08-29 12:20:00,92.3,66.6,29.97,SSW,198,8.0,12.0,43,0.00,,,0.00,Wunderground v.1.15,2013-08-29 17:20:00,
2013-08-29 12:26:00,92.8,66.3,29.97,SW,218,8.0,12.0,42,0.00,,,0.00,Wunderground v.1.15,2013-08-29 17:26:00,
2013-08-29 12:31:00,93.0,65.8,29.97,SSW,196,8.0,13.0,41,0.00,,,0.00,Wunderground v.1.15,2013-08-29 17:31:00,
2013-08-29 12:36:00,93.2,65.3,29.97,SSW,212,9.0,15.0,40,0.00,,,0.00,Wunderground v.1.15,2013-08-29 17:36:00,
2013-08-29 12:42:00,93.3,66.8,29.97,South,183,9.0,14.0,42,0.00,,,0.00,Wunderground v.1.15,2013-08-29 17:42:00,
2013-08-29 12:47:00,93.8,65.1,29.97,SSW,200,11.0,18.0,39,0.00,,,0.00,Wunderground v.1.15,2013-08-29 17:47:00,
2013-08-29 12:53:00,94.4,66.4,29.96,South,191,11.0,15.0,40,0.00,,,0.00,Wunderground v.1.15,2013-08-29 17:53:00,
2013-08-29 12:58:00,94.2,64.7,29.96,WSW,241,10.0,17.0,38,0.00,,,0.00,Wunderground v.1.15,2013-08-29 17:58:00,
2013-08-29 13:03:00,94.2,63.9,29.96,SSW,211,10.0,17.0,37,0.00,,,0.00,Wunderground v.1.15,2013-08-29 18:03:00,
2013-08-29 13:09:00,94.5,64.2,29.96,SW,215,10.0,18.0,37,0.00,,,0.00,Wunderground v.1.15,2013-08-29 18:09:00,
2013-08-29 13:15:00,94.6,63.5,29.96,SSW,194,10.0,16.0,36,0.00,,,0.00,Wunderground v.1.15,2013-08-29 18:15:00,
2013-08-29 13:20:00,94.7,63.6,29.96,SSW,208,11.0,14.0,36,0.00,,,0.00,Wunderground v.1.15,2013-08-29 18:20:00,
2013-08-29 13:26:00,94.9,64.6,29.95,West,267,10.0,18.0,37,0.00,,,0.00,Wunderground v.1.15,2013-08-29 18:26:00,
2013-08-29 13:31:00,95.3,64.9,29.95,SSW,195,9.0,12.0,37,0.00,,,0.00,Wunderground v.1.15,2013-08-29 18:31:00,
2013-08-29 13:37:00,95.5,63.5,29.95,SSE,160,9.0,15.0,35,0.00,,,0.00,Wunderground v.1.15,2013-08-29 18:37:00,
2013-08-29 13:43:00,95.8,63.8,29.95,South,188,9.0,13.0,35,0.00,,,0.00,Wunderground v.1.15,2013-08-29 18:43:00,
2013-08-29 13:48:00,95.6,65.2,29.95,SSW,192,10.0,15.0,37,0.00,,,0.00,Wunderground v.1.15,2013-08-29 18:48:00,
2013-08-29 13:54:00,95.6,63.6,29.95,SW,217,11.0,19.0,35,0.00,,,0.00,Wunderground v.1.15,2013-08-29 18:54:00,
2013-08-29 13:59:00,95.7,63.7,29.95,SW,218,11.0,19.0,35,0.00,,,0.00,Wunderground v.1.15,2013-08-29 18:59:00,
2013-08-29 14:05:00,96.0,63.9,29.94,South,174,10.0,14.0,35,0.00,,,0.00,Wunderground v.1.15,2013-08-29 19:05:00,
2013-08-29 14:11:00,96.1,63.2,29.94,SSW,211,9.0,14.0,34,0.00,,,0.00,Wunderground v.1.15,2013-08-29 19:11:00,
2013-08-29 14:16:00,96.2,63.3,29.94,SW,229,9.0,15.0,34,0.00,,,0.00,Wunderground v.1.15,2013-08-29 19:16:00,
2013-08-29 14:21:00,96.2,64.1,29.94,SW,219,9.0,10.0,35,0.00,,,0.00,Wunderground v.1.15,2013-08-29 19:21:00,
2013-08-29 14:27:00,96.4,64.3,29.94,SSW,196,9.0,14.0,35,0.00,,,0.00,Wunderground v.1.15,2013-08-29 19:27:00,
2013-08-29 14:32:00,96.1,63.2,29.94,SSW,205,9.0,15.0,34,0.00,,,0.00,Wunderground v.1.15,2013-08-29 19:32:00,
2013-08-29 14:38:00,96.2,63.3,29.93,South,180,10.0,17.0,34,0.00,,,0.00,Wunderground v.1.15,2013-08-29 19:38:00,
2013-08-29 14:43:00,96.5,62.7,29.93,SW,229,11.0,17.0,33,0.00,,,0.00,Wunderground v.1.15,2013-08-29 19:43:00,
2013-08-29 14:49:00,96.5,62.7,29.93,SSW,211,10.0,17.0,33,0.00,,,0.00,Wunderground v.1.15,2013-08-29 19:49:00,
2013-08-29 14:54:00,96.7,62.9,29.93,South,182,8.0,10.0,33,0.00,,,0.00,Wunderground v.1.15,2013-08-29 19:54:00,
2013-08-29 15:00:00,97.1,63.2,29.93,SSW,198,9.0,18.0,33,0.00,,,0.00,Wunderground v.1.15,2013-08-29 20:00:00,
2013-08-29 15:05:00,96.8,62.1,29.93,SSW,200,11.0,18.0,32,0.00,,,0.00,Wunderground v.1.15,2013-08-29 20:05:00,
2013-08-29 15:11:00,97.2,64.2,29.92,SSW,212,9.0,11.0,34,0.00,,,0.00,Wunderground v.1.15,2013-08-29 20:11:00,
2013-08-29 15:17:00,97.3,64.2,29.92,South,182,9.0,16.0,34,0.00,,,0.00,Wunderground v.1.15,2013-08-29 20:17:00,
2013-08-29 15:22:00,97.0,64.8,29.92,South,177,11.0,17.0,35,0.00,,,0.00,Wunderground v.1.15,2013-08-29 20:22:00,
2013-08-29 15:27:00,97.4,61.7,29.92,WSW,240,10.0,18.0,31,0.00,,,0.00,Wunderground v.1.15,2013-08-29 20:27:00,
2013-08-29 15:33:00,97.2,63.3,29.92,SSW,205,10.0,15.0,33,0.00,,,0.00,Wunderground v.1.15,2013-08-29 20:33:00,
2013-08-29 15:38:00,97.2,64.2,29.92,SSW,194,10.0,15.0,34,0.00,,,0.00,Wunderground v.1.15,2013-08-29 20:38:00,
2013-08-29 15:43:00,96.9,63.9,29.91,South,191,8.0,10.0,34,0.00,,,0.00,Wunderground v.1.15,2013-08-29 20:43:00,
2013-08-29 15:49:00,96.5,62.7,29.91,South,182,9.0,17.0,33,0.00,,,0.00,Wunderground v.1.15,2013-08-29 20:49:00,
2013-08-29 15:55:00,96.6,62.8,29.91,South,186,12.0,18.0,33,0.00,,,0.00,Wunderground v.1.15,2013-08-29 20:55:00,
2013-08-29 16:00:00,96.8,63.0,29.91,SSW,211,11.0,14.0,33,0.00,,,0.00,Wunderground v.1.15,2013-08-29 21:00:00,
2013-08-29 16:05:00,97.1,62.3,29.91,South,191,9.0,14.0,32,0.00,,,0.00,Wunderground v.1.15,2013-08-29 21:05:00,
2013-08-29 16:11:00,97.3,64.2,29.91,SSW,202,8.0,10.0,34,0.00,,,0.00,Wunderground v.1.15,2013-08-29 21:11:00,
2013-08-29 16:17:00,97.5,62.7,29.90,South,185,9.0,13.0,32,0.00,,,0.00,Wunderground v.1.15,2013-08-29 21:17:00,
2013-08-29 16:22:00,97.4,63.5,29.90,South,171,9.0,14.0,33,0.00,,,0.00,Wunderground v.1.15,2013-08-29 21:22:00,
2013-08-29 16:28:00,97.4,61.7,29.90,SSW,202,9.0,16.0,31,0.00,,,0.00,Wunderground v.1.15,2013-08-29 21:28:00,
2013-08-29 16:33:00,97.5,62.7,29.90,SSW,204,8.0,12.0,32,0.00,,,0.00,Wunderground v.1.15,2013-08-29 21:33:00,
2013-08-29 16:39:00,96.7,62.0,29.90,SW,223,9.0,18.0,32,0.00,,,0.00,Wunderground v.1.15,2013-08-29 21:39:00,
2013-08-29 16:45:00,96.9,63.0,29.90,South,186,10.0,14.0,33,0.00,,,0.00,Wunderground v.1.15,2013-08-29 21:45:00,
2013-08-29 16:51:00,97.2,64.2,29.90,South,182,9.0,17.0,34,0.00,,,0.00,Wunderground v.1.15,2013-08-29 21:51:00,
2013-08-29 16:56:00,97.2,61.5,29.90,South,189,11.0,18.0,31,0.00,,,0.00,Wunderground v.1.15,2013-08-29 21:56:00,
2013-08-29 17:02:00,97.2,61.5,29.89,SSW,196,10.0,15.0,31,0.00,,,0.00,Wunderground v.1.15,2013-08-29 22:02:00,
2013-08-29 17:08:00,97.3,61.6,29.89,SSW,200,9.0,15.0,31,0.00,,,0.00,Wunderground v.1.15,2013-08-29 22:08:00,
2013-08-29 17:14:00,97.2,61.5,29.89,SW,220,9.0,15.0,31,0.00,,,0.00,Wunderground v.1.15,2013-08-29 22:14:00,
2013-08-29 17:20:00,97.1,62.3,29.89,South,190,9.0,14.0,32,0.00,,,0.00,Wunderground v.1.15,2013-08-29 22:20:00,
2013-08-29 17:26:00,96.9,62.2,29.89,SSW,199,10.0,15.0,32,0.00,,,0.00,Wunderground v.1.15,2013-08-29 22:26:00,
2013-08-29 17:32:00,96.8,63.0,29.89,South,176,9.0,10.0,33,0.00,,,0.00,Wunderground v.1.15,2013-08-29 22:32:00,
2013-08-29 17:37:00,97.0,62.3,29.89,SW,235,7.0,14.0,32,0.00,,,0.00,Wunderground v.1.15,2013-08-29 22:37:00,
2013-08-29 17:43:00,96.9,61.3,29.89,SW,219,8.0,14.0,31,0.00,,,0.00,Wunderground v.1.15,2013-08-29 22:43:00,
2013-08-29 17:49:00,97.0,62.3,29.89,SW,228,9.0,14.0,32,0.00,,,0.00,Wunderground v.1.15,2013-08-29 22:49:00,
2013-08-29 17:54:00,96.9,62.2,29.89,SW,215,8.0,12.0,32,0.00,,,0.00,Wunderground v.1.15,2013-08-29 22:54:00,
2013-08-29 18:00:00,96.7,62.0,29.89,SSW,207,9.0,9.0,32,0.00,,,0.00,Wunderground v.1.15,2013-08-29 23:00:00,
2013-08-29 18:06:00,96.7,62.0,29.89,SW,225,9.0,11.0,32,0.00,,,0.00,Wunderground v.1.15,2013-08-29 23:06:00,
2013-08-29 18:11:00,96.4,62.6,29.89,SSW,200,8.0,13.0,33,0.00,,,0.00,Wunderground v.1.15,2013-08-29 23:11:00,
2013-08-29 18:17:00,96.4,62.6,29.89,SSW,213,9.0,14.0,33,0.00,,,0.00,Wunderground v.1.15,2013-08-29 23:17:00,
2013-08-29 18:23:00,96.2,61.6,29.89,SW,227,9.0,14.0,32,0.00,,,0.00,Wunderground v.1.15,2013-08-29 23:23:00,
2013-08-29 18:28:00,96.1,61.5,29.89,SSW,204,9.0,14.0,32,0.00,,,0.00,Wunderground v.1.15,2013-08-29 23:28:00,
2013-08-29 18:34:00,95.9,62.2,29.89,SW,215,8.0,10.0,33,0.00,,,0.00,Wunderground v.1.15,2013-08-29 23:34:00,
2013-08-29 18:40:00,95.7,62.0,29.89,SW,219,7.0,11.0,33,0.00,,,0.00,Wunderground v.1.15,2013-08-29 23:40:00,
2013-08-29 18:46:00,95.5,61.0,29.89,SW,219,7.0,11.0,32,0.00,,,0.00,Wunderground v.1.15,2013-08-29 23:46:00,
2013-08-29 18:52:00,95.2,61.6,29.89,SW,216,7.0,10.0,33,0.00,,,0.00,Wunderground v.1.15,2013-08-29 23:52:00,
2013-08-29 18:57:00,95.0,61.4,29.89,SW,215,7.0,12.0,33,0.00,,,0.00,Wunderground v.1.15,2013-08-29 23:57:00,
2013-08-29 19:02:00,94.9,62.1,29.89,SW,218,7.0,8.0,34,0.00,,,0.00,Wunderground v.1.15,2013-08-30 00:02:00,
2013-08-29 19:08:00,94.6,61.9,29.89,SW,219,5.0,9.0,34,0.00,,,0.00,Wunderground v.1.15,2013-08-30 00:08:00,
2013-08-29 19:13:00,94.3,62.4,29.89,SW,224,5.0,8.0,35,0.00,,,0.00,Wunderground v.1.15,2013-08-30 00:13:00,
2013-08-29 19:19:00,93.8,62.8,29.89,SW,229,5.0,8.0,36,0.00,,,0.00,Wunderground v.1.15,2013-08-30 00:19:00,
2013-08-29 19:24:00,93.5,62.5,29.89,SSW,206,5.0,7.0,36,0.00,,,0.00,Wunderground v.1.15,2013-08-30 00:24:00,
2013-08-29 19:30:00,92.8,63.5,29.89,South,188,5.0,5.0,38,0.00,,,0.00,Wunderground v.1.15,2013-08-30 00:30:00,
2013-08-29 19:35:00,92.0,64.2,29.89,South,188,4.0,6.0,40,0.00,,,0.00,Wunderground v.1.15,2013-08-30 00:35:00,
2013-08-29 19:40:00,91.4,63.7,29.89,SSW,194,5.0,6.0,40,0.00,,,0.00,Wunderground v.1.15,2013-08-30 00:40:00,
2013-08-29 19:46:00,90.9,63.9,29.89,South,188,5.0,6.0,41,0.00,,,0.00,Wunderground v.1.15,2013-08-30 00:46:00,
2013-08-29 19:51:00,90.4,64.2,29.89,South,187,5.0,6.0,42,0.00,,,0.00,Wunderground v.1.15,2013-08-30 00:51:00,
2013-08-29 19:57:00,89.8,64.3,29.90,SSW,197,5.0,6.0,43,0.00,,,0.00,Wunderground v.1.15,2013-08-30 00:57:00,
2013-08-29 20:02:00,89.4,64.0,29.90,SSW,192,5.0,6.0,43,0.00,,,0.00,Wunderground v.1.15,2013-08-30 01:02:00,
2013-08-29 20:08:00,89.3,64.5,29.90,South,170,5.0,6.0,44,0.00,,,0.00,Wunderground v.1.15,2013-08-30 01:08:00,
2013-08-29 20:14:00,88.6,64.5,29.90,South,180,5.0,6.0,45,0.00,,,0.00,Wunderground v.1.15,2013-08-30 01:14:00,
2013-08-29 20:20:00,88.3,64.3,29.90,SSE,166,5.0,7.0,45,0.00,,,0.00,Wunderground v.1.15,2013-08-30 01:20:00,
2013-08-29 20:25:00,88.0,65.2,29.90,SSE,149,6.0,8.0,47,0.00,,,0.00,Wunderground v.1.15,2013-08-30 01:25:00,
2013-08-29 20:30:00,87.0,64.9,29.90,SE,140,7.0,7.0,48,0.00,,,0.00,Wunderground v.1.15,2013-08-30 01:30:00,
2013-08-29 20:36:00,86.2,64.8,29.90,SE,146,7.0,10.0,49,0.00,,,0.00,Wunderground v.1.15,2013-08-30 01:36:00,
2013-08-29 20:42:00,86.0,64.6,29.90,South,171,7.0,7.0,49,0.00,,,0.00,Wunderground v.1.15,2013-08-30 01:42:00,
2013-08-29 20:47:00,85.6,64.8,29.90,South,172,6.0,8.0,50,0.00,,,0.00,Wunderground v.1.15,2013-08-30 01:47:00,
2013-08-29 20:53:00,85.2,65.0,29.90,SSE,167,6.0,8.0,51,0.00,,,0.00,Wunderground v.1.15,2013-08-30 01:53:00,
2013-08-29 20:59:00,85.1,64.9,29.90,SSE,166,5.0,8.0,51,0.00,,,0.00,Wunderground v.1.15,2013-08-30 01:59:00,
2013-08-29 21:05:00,84.8,64.7,29.91,South,169,5.0,6.0,51,0.00,,,0.00,Wunderground v.1.15,2013-08-30 02:05:00,
2013-08-29 21:11:00,84.4,64.9,29.91,South,173,5.0,6.0,52,0.00,,,0.00,Wunderground v.1.15,2013-08-30 02:11:00,
2013-08-29 21:17:00,84.2,64.7,29.91,South,178,5.0,9.0,52,0.00,,,0.00,Wunderground v.1.15,2013-08-30 02:17:00,
2013-08-29 21:22:00,84.2,64.7,29.91,South,176,6.0,8.0,52,0.00,,,0.00,Wunderground v.1.15,2013-08-30 02:22:00,
2013-08-29 21:28:00,84.0,65.0,29.91,SSE,167,6.0,8.0,53,0.00,,,0.00,Wunderground v.1.15,2013-08-30 02:28:00,
2013-08-29 21:33:00,83.8,64.8,29.91,South,176,6.0,8.0,53,0.00,,,0.00,Wunderground v.1.15,2013-08-30 02:33:00,
2013-08-29 21:39:00,83.4,65.0,29.91,South,172,6.0,9.0,54,0.00,,,0.00,Wunderground v.1.15,2013-08-30 02:39:00,
2013-08-29 21:44:00,83.0,65.2,29.91,SSE,157,6.0,10.0,55,0.00,,,0.00,Wunderground v.1.15,2013-08-30 02:44:00,
2013-08-29 21:50:00,83.0,65.2,29.91,South,175,7.0,10.0,55,0.00,,,0.00,Wunderground v.1.15,2013-08-30 02:50:00,
2013-08-29 21:55:00,83.3,64.9,29.91,South,186,9.0,15.0,54,0.00,,,0.00,Wunderground v.1.15,2013-08-30 02:55:00,
2013-08-29 22:01:00,83.8,64.8,29.91,South,179,10.0,13.0,53,0.00,,,0.00,Wunderground v.1.15,2013-08-30 03:01:00,
2013-08-29 22:07:00,83.9,64.9,29.91,South,177,10.0,15.0,53,0.00,,,0.00,Wunderground v.1.15,2013-08-30 03:07:00,
2013-08-29 22:12:00,83.6,64.7,29.91,South,176,9.0,11.0,53,0.00,,,0.00,Wunderground v.1.15,2013-08-30 03:12:00,
2013-08-29 22:17:00,83.3,64.9,29.92,South,173,8.0,11.0,54,0.00,,,0.00,Wunderground v.1.15,2013-08-30 03:17:00,
2013-08-29 22:23:00,82.6,64.8,29.91,South,175,7.0,8.0,55,0.00,,,0.00,Wunderground v.1.15,2013-08-30 03:23:00,
2013-08-29 22:29:00,82.1,65.4,29.91,SSE,153,6.0,8.0,57,0.00,,,0.00,Wunderground v.1.15,2013-08-30 03:29:00,
2013-08-29 22:34:00,81.6,65.4,29.91,SSE,168,5.0,7.0,58,0.00,,,0.00,Wunderground v.1.15,2013-08-30 03:34:00,
2013-08-29 22:40:00,81.0,65.3,29.91,South,173,5.0,6.0,59,0.00,,,0.00,Wunderground v.1.15,2013-08-30 03:40:00,
2013-08-29 22:46:00,80.5,65.3,29.91,South,175,5.0,7.0,60,0.00,,,0.00,Wunderground v.1.15,2013-08-30 03:46:00,
2013-08-29 22:52:00,80.0,65.3,29.91,South,183,5.0,7.0,61,0.00,,,0.00,Wunderground v.1.15,2013-08-30 03:52:00,
2013-08-29 22:57:00,80.0,65.3,29.91,South,178,5.0,7.0,61,0.00,,,0.00,Wunderground v.1.15,2013-08-30 03:57:00,
2013-08-29 23:01:00,79.7,65.1,29.91,South,175,5.0,6.0,61,0.00,,,0.00,Wunderground v.1.15,2013-08-30 04:01:00,
2013-08-29 23:02:00,79.7,65.1,29.91,South,183,5.0,7.0,61,0.00,,,0.00,Wunderground v.1.15,2013-08-30 04:02:00,
2013-08-29 23:03:00,79.6,65.4,29.91,South,180,5.0,7.0,62,0.00,,,0.00,Wunderground v.1.15,2013-08-30 04:03:00,
2013-08-29 23:04:00,79.6,65.4,29.91,South,182,5.0,7.0,62,0.00,,,0.00,Wunderground v.1.15,2013-08-30 04:04:00,
2013-08-29 23:07:00,79.6,65.4,29.91,South,185,6.0,8.0,62,0.00,,,0.00,Wunderground v.1.15,2013-08-30 04:07:00,
2013-08-29 23:13:00,79.7,65.1,29.91,South,171,6.0,7.0,61,0.00,,,0.00,Wunderground v.1.15,2013-08-30 04:13:00,
2013-08-29 23:18:00,79.4,65.2,29.91,South,181,5.0,7.0,62,0.00,,,0.00,Wunderground v.1.15,2013-08-30 04:18:00,
2013-08-29 23:20:00,79.3,65.1,29.92,South,181,5.0,6.0,62,0.00,,,0.00,Wunderground v.1.15,2013-08-30 04:20:00,
2013-08-29 23:26:00,79.1,65.4,29.91,South,182,5.0,8.0,63,0.00,,,0.00,Wunderground v.1.15,2013-08-30 04:26:00,
2013-08-29 23:32:00,78.8,65.6,29.91,South,171,6.0,7.0,64,0.00,,,0.00,Wunderground v.1.15,2013-08-30 04:32:00,
2013-08-29 23:37:00,78.6,65.4,29.91,South,177,6.0,8.0,64,0.00,,,0.00,Wunderground v.1.15,2013-08-30 04:37:00,
2013-08-29 23:43:00,78.6,65.4,29.91,South,171,6.0,7.0,64,0.00,,,0.00,Wunderground v.1.15,2013-08-30 04:43:00,
2013-08-29 23:49:00,78.2,65.5,29.92,South,177,5.0,7.0,65,0.00,,,0.00,Wunderground v.1.15,2013-08-30 04:49:00,
2013-08-29 23:54:00,77.9,65.6,29.92,South,181,5.0,6.0,66,0.00,,,0.00,Wunderground v.1.15,2013-08-30 04:54:00,